Regional Weather Roundup
Issued by NWS

Home | Current Version | Previous Version | Graphics & Text | Print | Product List | Glossary On
Versions: 1 2 3 4 5 6 7 8 9 10 11 12 13 14 15 16 17 18 19 20 21 22 23 24 25 26 27 28 29 30 31 32 33 34 35 36 37 38 39 40 41 42 43 44 45 46 47 48 49 50
000
ASUS43 KIND 221759
RWRIN

WEATHER ROUNDUP FOR INDIANA
NATIONAL WEATHER SERVICE INDIANAPOLIS IN
200 PM EDT WED MAR 22 2017

NOTE: "FAIR" INDICATES FEW OR NO CLOUDS BELOW 12,000 FEET WITH NO
SIGNIFICANT WEATHER AND/OR OBSTRUCTIONS TO VISIBILITY.

* - STATION DOES NOT REPORT WEATHER SUCH AS PRECIPITATION OR FOG.

+ - STATION NOT QUALITY CONTROLLED BY THE NATIONAL WEATHER SERVICE.
    USE DATA WITH CAUTION...ESPECIALLY DEWPOINT AND RELATIVE
    HUMIDITY OBSERVATIONS.

INZ001>003-010>013-019-020-221900-
NORTHWEST INDIANA

CITY           SKY/WX    TMP DP  RH WIND       PRES   REMARKS
GARY /AIRPORT/ MOSUNNY   32  14  47 NE14      30.60F WCI  22
KNOX *+        SUNNY     34 -11  14 SE5       30.56F WCI  30
MICHIGAN CITY+ SUNNY     34  16  47 N5        30.57F WCI  30
MONTICELLO +   SUNNY     33  15  47 SE3       30.55F
6HR MIN TEMP:  24; 6HR MAX TEMP:  34;

RENSSELAER +     N/A     34  16  47 E12G17    30.56F WCI  25

$$

LMZ046-743>745-221900-
SOUTHERN LAKE MICHIGAN

STATION/POSITION TIME  TEMP    WIND        PRES    WAVE
                       AIR SEA DIR/SP/G            HT
                 (UTC) (F)     (DEG/KT/KT) (MB)    (FT)
BURNS HARBOR     1740   27      30/  9/ 11 1035.9F
MICHIGAN CITY    1730   26      10/  9/ 11   N/A

$$

INZ004-005-014>016-021>024-221900-
NORTH CENTRAL INDIANA

CITY           SKY/WX    TMP DP  RH WIND       PRES   REMARKS
ELKHART        SUNNY     32   9  37 SE6       30.57S WCI  26
GOSHEN         SUNNY     33  11  39 E8        30.56F WCI  26
6HR MIN TEMP:  20; 6HR MAX TEMP:  33;

SOUTH BEND     SUNNY     32  11  41 VRB3      30.57F
6HR MIN TEMP:  19; 6HR MAX TEMP:  33;


$$

INZ006>009-017-018-025>027-221900-
NORTHEAST INDIANA

CITY           SKY/WX    TMP DP  RH WIND       PRES   REMARKS
ANGOLA *+      SUNNY     30  14  51 SE6       30.55S WCI  24
FORT WAYNE     SUNNY     33  14  45 E10       30.56F WCI  25
6HR MIN TEMP:  22; 6HR MAX TEMP:  33;

KENDALLVILLE + SUNNY     32   9  39 CALM      30.56S

$$

INZ028-029-035-036-043>045-051>053-221900-
WEST CENTRAL INDIANA

CITY           SKY/WX    TMP DP  RH WIND       PRES   REMARKS
CRAWFORDSVL +  SUNNY     34  17  49 NE14G21   30.53S WCI  25
6HR MIN TEMP:  24; 6HR MAX TEMP:  34;

GREENCASTLE +  SUNNY     36  16  44 E9        30.51F
LAFAYETTE      SUNNY     34  18  52 E9        30.55F WCI  27
6HR MIN TEMP:  24; 6HR MAX TEMP:  34;

TERRE HAUTE    SUNNY     41  17  38 NE13      30.50F
6HR MIN TEMP:  29; 6HR MAX TEMP:  41;


$$

INZ030>032-037>040-046>048-054>057-064-065-221900-
CENTRAL INDIANA

CITY           SKY/WX    TMP DP  RH WIND       PRES   REMARKS
ANDERSON       SUNNY     34  18  51 NE17      30.53F WCI  23
COLUMBUS       SUNNY     37  19  48 NE16      30.52F
GREENWOOD *+   SUNNY     36  18  49 NE9G16    30.52F
6HR MIN TEMP:  29; 6HR MAX TEMP:  36;

INDIANAPOLIS   MOSUNNY   37  13  37 E13G24    30.51F
6HR MIN TEMP:  27; 6HR MAX TEMP:  37;

-EAGLE CREEK   SUNNY     37  16  42 NE14      30.51F
6HR MIN TEMP:  27; 6HR MAX TEMP:  37;

KOKOMO +       SUNNY     32  20  61 NE10      30.56F WCI  24
6HR MIN TEMP:  24; 6HR MAX TEMP:  32;

SHELBYVILLE    SUNNY     37  19  48 NE17      30.51F
6HR MIN TEMP:  29; 6HR MAX TEMP:  37;


$$

INZ033-034-041-042-049-050-058-059-221900-
EAST CENTRAL INDIANA

CITY           SKY/WX    TMP DP  RH WIND       PRES   REMARKS
MUNCIE         SUNNY     34  18  52 E10       30.53F WCI  26
6HR MIN TEMP:  25; 6HR MAX TEMP:  34;

RICHMOND +     SUNNY     32  19  59 NE12G17   30.52S WCI  23

$$

INZ060-061-067>069-081>083-085>088-221900-
SOUTHWEST INDIANA

CITY           SKY/WX    TMP DP  RH WIND       PRES   REMARKS
EVANSVILLE     SUNNY     50  21  32 E13       30.43F
6HR MIN TEMP:  36; 6HR MAX TEMP:  50;

HUNTINGBURG *+ SUNNY     46  21  37 NE14      30.44F
6HR MIN TEMP:  34; 6HR MAX TEMP:  46;


$$

INZ062-063-066-070>080-084-089>092-221900-
SOUTH CENTRAL AND SOUTHEAST INDIANA

CITY           SKY/WX    TMP DP  RH WIND       PRES   REMARKS
BLOOMINGTON    SUNNY     41  14  33 NE10G18   30.47F
6HR MIN TEMP:  30; 6HR MAX TEMP:  42;

MADISON *+     SUNNY     41  12  30 NE9G17    30.49F
SEYMOUR +      SUNNY     41  19  42 NE12G17   30.49F

$$





USA.gov is the U.S. government's official web portal to all federal, state and local government web resources and services.